[[{"header":{"parameterUnit":"m.s-1","parameterCategory":1,"la1":30.2992,"la2":30.254,"lo1":-89.0895,"lo2":-89.0443,"dy":0.0025,"dx":0.0025,"nx":19,"ny":19,"refTime":"2026-04-25T03:00:00:Z","depth":0,"parameterNumber":2,"parameterNumberName":"U-component_of_WINDS"},"data":[0,0,0,-0.574,-0.5741,-0.5799,-0.5799,-0.5872,-0.5872,0,0,0,0,0,0,0,0,0,0,0,-0.572,-0.572,-0.574,-0.5741,-0.5799,-0.5799,-0.5872,-0.5872,0,0,0,0,0,0,0,0,0,0,0,-0.572,-0.572,-0.572,-0.5742,-0.5799,-0.5799,-0.5872,-0.5829,0,0,0,0,0,0,0,0,0,0,-0.5774,-0.5751,-0.572,-0.572,-0.5742,-0.5799,-0.5799,-0.5827,-0.5832,-0.5845,0,-0.5853,0,-0.5863,-0.5877,-0.5877,0,0,0,-0.5745,-0.5747,-0.5765,-0.572,-0.5742,-0.5799,-0.5774,-0.583,-0.5835,-0.5851,-0.5854,-0.5856,-0.5865,-0.5877,-0.5878,-0.5935,-0.5935,0,0,-0.5741,-0.5729,-0.5762,-0.5768,-0.5756,-0.5772,-0.5775,-0.5833,-0.5836,-0.5854,-0.5858,-0.5866,-0.5878,-0.5878,-0.5935,-0.5935,0,0,0,-0.573,-0.5727,-0.5744,-0.5765,-0.5776,-0.5773,-0.5778,-0.5834,-0.584,-0.5859,-0.5867,-0.5878,-0.5879,-0.5935,-0.5935,-0.5927,0,0,0,-0.5728,-0.572,-0.5742,-0.5735,-0.5774,-0.5805,-0.5777,-0.5836,-0.5843,-0.5866,-0.5878,-0.588,-0.5935,-0.5935,-0.5927,-0.5926,0,0,0,-0.5717,-0.5719,-0.5726,-0.5734,-0.5758,-0.5804,-0.5814,-0.5838,-0.5848,-0.5877,-0.588,-0.5935,-0.5935,-0.5927,-0.5926,-0.5937,0,0,0,-0.5702,-0.5719,-0.5725,-0.5747,-0.5757,-0.5798,-0.5814,-0.5846,-0.587,-0.5879,-0.5935,-0.5935,-0.5927,-0.5926,-0.5937,-0.5943,-0.5944,0,0,-0.5717,-0.572,-0.5734,-0.5742,-0.5778,-0.5791,-0.5827,-0.5862,-0.5878,-0.5916,-0.5918,-0.5927,-0.5926,-0.5937,-0.5959,-0.596,0,0,0,-0.5735,-0.5744,-0.5757,-0.5778,-0.5805,-0.5828,-0.5859,-0.5872,-0.5904,-0.5894,-0.5935,-0.5935,-0.5942,-0.5945,-0.5946,-0.5953,-0.5936,-0.5936,-0.5936,-0.5737,-0.5754,-0.5779,-0.5804,-0.5825,-0.5857,-0.5876,-0.5901,-0.5913,-0.5923,-0.5934,-0.5945,-0.5949,-0.5949,-0.5956,-0.594,-0.594,-0.594,-0.5939,-0.5759,-0.5775,-0.5792,-0.5821,-0.5841,-0.5867,-0.59,-0.5908,-0.5937,-0.5938,-0.5945,-0.5944,-0.595,-0.5957,-0.5939,-0.5939,-0.5939,-0.5939,-0.5939,-0.5761,-0.5772,-0.5787,-0.582,-0.5845,-0.5871,-0.5898,-0.5916,-0.5933,-0.594,-0.5954,-0.5954,-0.5956,-0.5946,-0.5946,-0.5946,-0.5946,-0.5946,-0.5946,-0.5757,-0.5774,-0.5793,-0.5823,-0.5839,-0.5864,-0.5897,-0.5915,-0.594,-0.5951,-0.5952,-0.5964,-0.5947,-0.5942,-0.5946,-0.5946,-0.5946,-0.5946,-0.5946,-0.5771,-0.5771,-0.5799,-0.5816,-0.5853,-0.5877,-0.59,-0.5935,-0.5953,-0.5966,-0.5977,-0.5962,-0.5968,-0.5967,-0.5963,-0.5973,-0.5973,-0.5973,-0.5973,-0.5773,-0.5777,-0.5811,-0.5836,-0.5863,-0.5887,-0.5922,-0.5949,-0.5978,-0.599,-0.5992,-0.5989,-0.5987,-0.5994,-0.5993,-0.5989,-0.6006,-0.6006,-0.6006,-0.5783,-0.5791,-0.5815,-0.584,-0.5871,-0.5898,-0.5931,-0.5963,-0.5996,-0.6007,-0.6001,-0.6,-0.5994,-0.5992,-0.6002,-0.5999,-0.5993,0,0]},{"header":{"parameterUnit":"m.s-1","parameterCategory":1,"la1":30.2992,"la2":30.254,"lo1":-89.0895,"lo2":-89.0443,"dy":0.0025,"dx":0.0025,"nx":19,"ny":19,"refTime":"2026-04-25T03:00:00:Z","depth":0,"parameterNumber":3,"parameterNumberName":"V-component_of_WINDS"},"data":[0,0,0,1.5434,1.5437,1.5544,1.5544,1.5676,1.5677,0,0,0,0,0,0,0,0,0,0,0,1.5402,1.5403,1.5434,1.5437,1.5543,1.5544,1.5676,1.5677,0,0,0,0,0,0,0,0,0,0,0,1.5402,1.5403,1.5404,1.5437,1.5543,1.5544,1.5675,1.5596,0,0,0,0,0,0,0,0,0,0,1.5493,1.5463,1.5402,1.5404,1.5438,1.5543,1.5544,1.5592,1.5601,1.5626,0,1.565,0,1.5666,1.5686,1.5686,0,0,0,1.5437,1.5456,1.5485,1.5404,1.5439,1.5543,1.5495,1.5597,1.5607,1.5638,1.5652,1.5657,1.5668,1.5687,1.5687,1.5834,1.5834,0,0,1.5431,1.5421,1.5478,1.5491,1.5477,1.5492,1.5499,1.5603,1.5617,1.5652,1.566,1.567,1.5687,1.5688,1.5833,1.5834,0,0,0,1.5414,1.5416,1.5443,1.5486,1.5506,1.5495,1.5503,1.5613,1.5622,1.5661,1.5671,1.5688,1.569,1.5832,1.5833,1.5856,0,0,0,1.5411,1.5406,1.5441,1.5435,1.5504,1.5561,1.551,1.5615,1.5627,1.5671,1.5688,1.5691,1.5832,1.5833,1.5854,1.5869,0,0,0,1.5395,1.5405,1.542,1.5434,1.548,1.556,1.5575,1.5618,1.5634,1.5686,1.5691,1.5831,1.5833,1.5852,1.5866,1.5905,0,0,0,1.5375,1.5439,1.542,1.5494,1.5479,1.5573,1.5575,1.5645,1.5693,1.5689,1.5832,1.5833,1.5852,1.5864,1.5902,1.5936,1.5948,0,0,1.545,1.5448,1.5492,1.5478,1.5573,1.5558,1.5655,1.5709,1.5723,1.5795,1.5799,1.5855,1.5866,1.5904,1.6022,1.6032,0,0,0,1.5512,1.5544,1.5571,1.5617,1.5659,1.5696,1.5736,1.5756,1.5818,1.5759,1.5879,1.5886,1.5909,1.5925,1.5934,1.5954,1.584,1.584,1.584,1.5602,1.5617,1.5691,1.5718,1.5762,1.5801,1.5837,1.587,1.5872,1.59,1.5922,1.5992,1.6011,1.6017,1.6038,1.594,1.594,1.594,1.594,1.5712,1.576,1.576,1.5832,1.5846,1.5906,1.5945,1.5944,1.6001,1.5977,1.5998,1.5971,1.6028,1.6047,1.5942,1.5942,1.5942,1.5942,1.5941,1.5774,1.5799,1.5822,1.5888,1.5936,1.596,1.6014,1.6025,1.6035,1.6056,1.6079,1.6079,1.608,1.6066,1.6066,1.6066,1.6067,1.6067,1.6067,1.583,1.5854,1.59,1.5948,1.5978,1.6018,1.6056,1.6084,1.6119,1.6122,1.6122,1.6121,1.6031,1.6008,1.6071,1.607,1.607,1.6069,1.6069,1.5938,1.5914,1.5985,1.6014,1.6071,1.6118,1.6129,1.6186,1.6211,1.6237,1.6231,1.6162,1.6161,1.6154,1.6136,1.6228,1.6228,1.6228,1.6228,1.599,1.599,1.6063,1.6109,1.6155,1.6173,1.6249,1.6278,1.6304,1.632,1.6307,1.6283,1.6276,1.6279,1.6269,1.6252,1.6372,1.6372,1.6372,1.6057,1.6061,1.6126,1.6152,1.6197,1.6234,1.6306,1.6357,1.6381,1.6378,1.6332,1.6326,1.6287,1.6274,1.6272,1.6257,1.6226,0,0]}]]